Tracking 32139 objects as of 15-Nov-2025
HD Live streaming from Space Station
objects crossing your sky now

STARLINK-35520

Track STARLINK-35520 now!
10-day predictions
STARLINK-35520 is classified as:


NORAD ID: 66133
Int'l Code: 2025-237V
Perigee: 425.4 km
Apogee: 426.9 km
Inclination: 53.2 °
Period: 92.9 minutes
Semi major axis: 6797 km
RCS: Unknown
Launch date: October 22, 2025
Source: United States (US)
Launch site: AIR FORCE WESTERN TEST RANGE (AFWTR)
Your satellite tracking list
Your tracking list is empty




NASA's NSSDC Master Catalog

Two Line Element Set (TLE):
1 66133U 25237V   25319.50003471  .00096932  00000-0  17344-2 0  9998
2 66133  53.1601 215.9251 0001062 107.7093 277.0328 15.49225221  5106
Source of the keplerian elements: AFSPC